Other Public Products
Issued by NWS Grand Forks, ND

Home | Current Version | Previous Version | Graphics & Text | Print | Product List | Glossary On
Versions: 1 2 3 4 5 6 7 8 9 10 11 12 13 14 15 16 17 18 19 20 21 22 23 24 25 26 27 28 29 30 31 32 33 34 35 36 37 38 39 40 41 42 43 44 45 46 47 48 49 50
000
FPUS83 KFGF 210631
OPUFGF
PRAIRIE TO PINES WEATHER ROUNDUP
NATIONAL WEATHER SERVICE EASTERN NORTH DAKOTA/GRAND FORKS ND
100 AM CDT TUE OCT 21 2014

 **SATELLITE DATA USED TO AUGMENT SKY COVER AT AUTOMATED STATIONS**
 *****  WEATHER ACROSS EASTERN NORTH DAKOTA  *****

CITY           SKY/WX    TMP DP  RH WIND       PRES   REMARKS
GRAND FORKS    CLEAR     43  37  79 SE12      30.05S
6HR MIN TEMP:  39; 6HR MAX TEMP:  52;

GRAND FORKS AF CLEAR     41  39  92 SE10      30.05S
GRAND CITY NWS   N/A     41 N/A N/A SE12        N/A
BUXTON           N/A     42  39  91 E9          N/A
DEVILS LAKE    CLEAR     46  37  71 SE15      29.97F
6HR MIN TEMP:  46; 6HR MAX TEMP:  55;

FARGO          CLEAR     46  37  71 E10       30.04F
6HR MIN TEMP:  45; 6HR MAX TEMP:  55;

WAHPETON ARPT  CLEAR     41  32  70 E6        30.06S
$$

 *****  WEATHER ACROSS CENTRAL AND WESTERN NORTH DAKOTA  *****

CITY           SKY/WX    TMP DP  RH WIND       PRES   REMARKS
JAMESTOWN      CLEAR     46  39  76 SE9       29.99F
6HR MIN TEMP:  46; 6HR MAX TEMP:  56;

BISMARCK       CLEAR     52  34  50 E10       29.92F
6HR MIN TEMP:  48; 6HR MAX TEMP:  55;

MINOT          CLEAR     46  35  65 E6        29.87F
6HR MIN TEMP:  45; 6HR MAX TEMP:  62;

MINOT AFB      CLEAR     44  37  75 SE12      29.86S
6HR MIN TEMP:  44; 6HR MAX TEMP:  57;

GARRISON         N/A     46  37  71 E9        29.88F
6HR MIN TEMP:  45; 6HR MAX TEMP:  60;

WILLISTON      CLEAR     54  41  61 CALM      29.81F
6HR MIN TEMP:  50; 6HR MAX TEMP:  71;

DICKINSON      CLEAR     50  38  63 SE14      29.83F
6HR MIN TEMP:  50; 6HR MAX TEMP:  62;

HETTINGER      PTCLDY    48  38  68 E8        29.86F
6HR MIN TEMP:  48; 6HR MAX TEMP:  66;

$$

 *****  OTHER OBSERVATIONS NORTHEAST NORTH DAKOTA  *****

CITY           SKY/WX    TMP DP  RH WIND       PRES   REMARKS
WALHALLA       FAIR      45  41  87 S15       30.03S
LANGDON        FAIR      43  37  81 SE15      30.00S
CAVALIER       FAIR      41  37  87 S8        30.04S
GRAFTON        FAIR      39  36  87 SE10      30.05S
CANDO          FAIR      45  41  87 SE12      29.97F
FORT TOTTEN      N/A     48  40  75 SE12      29.95
ROLLA          FAIR      45  41  87 S13       29.96S
RUGBY          FAIR      48  39  71 SE12      29.93S
 ***** THE ABOVE OBSERVATIONS ARE NON NWS ARE NOT QUALITY
        CONTROLLED AND MAY MIS-REPORT RAIN FOR SNOW...
$$

 *****  OTHER OBSERVATIONS SOUTHEAST NORTH DAKOTA *****

CITY           SKY/WX    TMP DP  RH WIND       PRES   REMARKS
COOPERSTOWN    NOT AVBL
VALLEY CITY    FAIR      46  41  81 S8        30.02S
OAKES            N/A     39  39 100 SE7       30.01S
GWINNER        CLEAR     45  37  76 SE9       30.04R
BUFFALO          N/A     44  36  74 E9          N/A
WYNDMERE         N/A     39  36  87 E3          N/A
 ***** THE ABOVE OBSERVATIONS ARE NON NWS ARE NOT QUALITY
       CONTROLLED AND MAY MIS-REPORT RAIN FOR SNOW...
$$

  *****  WEATHER ACROSS NORTHERN MINNESOTA  *****

CITY           SKY/WX    TMP DP  RH WIND       PRES   REMARKS
FLAG ISLAND    CLEAR     43  37  81 SE12      30.11R
WARROAD        CLEAR     37  34  87 SE7       30.12R
ROSEAU         CLEAR     39  34  81 SE8       30.09F
HALLOCK        CLEAR     43  37  81 SE10      30.06S
THF RVR FALLS  CLEAR     37  36  93 SE8       30.09S
6HR MIN TEMP:  37; 6HR MAX TEMP:  50;

HALSTAD          N/A     40  36  85 SE10        N/A
FOSSTON        CLEAR     37  34  87 SE6       30.09S
BAUDETTE       CLEAR     36  33  89 SE5       30.12R
6HR MIN TEMP:  35; 6HR MAX TEMP:  43;

WASKISH        CLEAR     28  28 100 CALM      30.12R
CROOKSTON      CLEAR     39  37  93 SE9       30.08R
$$
  *****  WEATHER ACROSS CENTRAL AND WEST MINNESOTA  *****

CITY           SKY/WX    TMP DP  RH WIND       PRES   REMARKS
BEMIDJI        CLEAR     35  34  97 SE5       30.11R
PARK RAPIDS    CLEAR     38  36  92 SE3       30.11R
6HR MIN TEMP:  37; 6HR MAX TEMP:  54;

WADENA         CLEAR     37  36  93 E3        30.11R
DETROIT LAKES  CLEAR     43  37  81 SE10      30.10S
MOORHEAD       CLEAR     45  43  93 E9        30.06F
FERGUS FALLS   CLEAR     45  36  70 E9        30.09R
ELBOW LAKE     FAIR      44  39  81 SE10      30.08R
6HR MIN TEMP:  45; 6HR MAX TEMP:  53;

MORRIS MN      CLEAR     39  36  87 E9        30.07S
STAPLES        CLEAR     36  34  93 CALM      30.12R
WHEATON        CLEAR     30  27  86 SE6       30.09R WCI  24
$$
  *****  WEATHER ELSEWHERE ACROSS MINNESOTA  *****

CITY           SKY/WX    TMP DP  RH WIND       PRES   REMARKS
DULUTH         CLOUDY    45  35  68 E7        30.12R
6HR MIN TEMP:  45; 6HR MAX TEMP:  47;

INTRNTL FALLS  CLOUDY    42  34  73 E8        30.14R
6HR MIN TEMP:  42; 6HR MAX TEMP:  46;

ELY            CLOUDY    39  34  81 CALM      30.15R
CLOQUET        CLOUDY    45  36  70 E5        30.13R
BRAINERD       CLEAR     33  33 100 CALM      30.13R FOG
6HR MIN TEMP:  33; 6HR MAX TEMP:  48;

HIBBING        CLOUDY    44  34  67 E6        30.13R
6HR MIN TEMP:  44; 6HR MAX TEMP:  47;

ALEXANDRIA     CLEAR     43  38  82 E9        30.10R
6HR MIN TEMP:  42; 6HR MAX TEMP:  56;

SAINT CLOUD    CLEAR     40  36  86 CALM      30.11R
6HR MIN TEMP:  40; 6HR MAX TEMP:  56;

MINNEAPOLIS    CLEAR     42  38  85 CALM      30.10R
6HR MIN TEMP:  42; 6HR MAX TEMP:  55;

$$

  *****  WEATHER ACROSS SOUTH DAKOTA  *****

CITY           SKY/WX    TMP DP  RH WIND       PRES   REMARKS
SIOUX FALLS    CLEAR     40  35  83 CALM      30.05F
6HR MIN TEMP:  38; 6HR MAX TEMP:  61;

BROOKINGS      NOT AVBL
WATERTOWN      CLEAR     45  37  73 SE6       30.04F
6HR MIN TEMP:  41; 6HR MAX TEMP:  59;

HURON          CLEAR     46  35  65 SE7       30.01S
6HR MIN TEMP:  46; 6HR MAX TEMP:  61;

SISSETON         N/A     37  35  92 SW3       30.04S
ABERDEEN       CLEAR     44  37  76 E8        30.00F
6HR MIN TEMP:  43; 6HR MAX TEMP:  55;

MITCHELL       CLEAR     47  37  68 S8        30.03R
PIERRE         CLEAR     57  38  48 SE14      29.91F
6HR MIN TEMP:  57; 6HR MAX TEMP:  64;

MOBRIDGE       CLEAR     58  35  42 SE16      29.89F
RAPID CITY     CLEAR     53  42  66 SE7       29.87F
6HR MIN TEMP:  53; 6HR MAX TEMP:  68;

$$

  *****  SOME WEATHER IN NEARBY STATES *****

CITY           SKY/WX    TMP DP  RH WIND       PRES   REMARKS
GLASGOW MT     CLEAR     50  37  61 E13       29.72F
6HR MIN TEMP:  50; 6HR MAX TEMP:  67;

GREAT FALLS MT CLEAR     60  34  37 S13       29.68F
6HR MIN TEMP:  58; 6HR MAX TEMP:  70;

CHEYENNE WY    CLEAR     43  34  70 W6        30.07F
6HR MIN TEMP:  43; 6HR MAX TEMP:  65;

SCOTTSBLUFF NE CLEAR     60  40  47 SE10      29.99F
6HR MIN TEMP:  52; 6HR MAX TEMP:  69;

OMAHA NE       CLEAR     45  43  93 CALM      30.07S
6HR MIN TEMP:  45; 6HR MAX TEMP:  66;

DES MOINES IA  CLEAR     49  41  74 CALM      30.06R
6HR MIN TEMP:  48; 6HR MAX TEMP:  63;

DAVENPORT IA   CLEAR     45  40  82 NE3       30.04S
6HR MIN TEMP:  44; 6HR MAX TEMP:  55;

CHICAGO IL     CLOUDY    51  42  71 N6        30.00R
6HR MIN TEMP:  51; 6HR MAX TEMP:  55;

EAU CLAIRE WI  CLEAR     37  35  92 E3        30.09R
6HR MIN TEMP:  37; 6HR MAX TEMP:  52;

LA CROSSE WI   CLEAR     42  39  89 CALM      30.07R
6HR MIN TEMP:  41; 6HR MAX TEMP:  56;

$$

  *****  SOME NATIONAL WEATHER *****

CITY           SKY/WX    TMP DP  RH WIND       PRES   REMARKS
LA GUARDIA NY  CLOUDY    57  44  62 S3        29.94F


USA.gov is the U.S. government's official web portal to all federal, state and local government web resources and services.